Time,TemperatureF,DewpointF,PressureIn,WindDirection,WindDirectionDegrees,WindSpeedMPH,WindSpeedGustMPH,Humidity,HourlyPrecipIn,Conditions,Clouds,dailyrainin,SolarRadiationWatts/m^2,SoftwareType,DateUTC
2013-02-02 00:02:00,50.5,47.4,30.22,WSW,248,0.0,0.0,89,0.00,CLR,,0.00,0.0,WeatherDisplay:10.37,2013-02-02 08:02:00,
2013-02-02 00:07:00,50.5,47.4,30.23,WSW,248,0.0,0.0,89,0.00,CLR,,0.00,0.0,WeatherDisplay:10.37,2013-02-02 08:07:00,
2013-02-02 00:12:00,50.5,47.4,30.23,WSW,248,0.0,0.0,89,0.00,CLR,,0.00,0.0,WeatherDisplay:10.37,2013-02-02 08:12:00,
2013-02-02 00:17:00,50.5,47.4,30.23,WSW,248,0.0,0.0,89,0.00,CLR,,0.00,0.0,WeatherDisplay:10.37,2013-02-02 08:17:00,
2013-02-02 00:22:00,50.4,47.2,30.23,WSW,248,0.0,0.0,89,0.00,CLR,,0.00,0.0,WeatherDisplay:10.37,2013-02-02 08:22:00,
2013-02-02 00:28:00,50.5,47.4,30.23,WSW,248,0.0,0.0,89,0.00,CLR,,0.00,0.0,WeatherDisplay:10.37,2013-02-02 08:28:00,
2013-02-02 00:33:00,50.2,47.1,30.23,WSW,248,0.0,0.0,89,0.00,CLR,,0.00,0.0,WeatherDisplay:10.37,2013-02-02 08:33:00,
2013-02-02 00:38:00,50.0,46.6,30.23,WSW,248,0.0,0.0,88,0.00,CLR,,0.00,0.0,WeatherDisplay:10.37,2013-02-02 08:38:00,
2013-02-02 00:43:00,50.0,46.6,30.23,WSW,248,0.0,0.0,88,0.00,CLR,,0.00,0.0,WeatherDisplay:10.37,2013-02-02 08:43:00,
2013-02-02 00:48:00,50.0,46.9,30.23,WSW,248,0.0,0.0,89,0.00,CLR,,0.00,0.0,WeatherDisplay:10.37,2013-02-02 08:48:00,
2013-02-02 00:53:00,50.2,47.1,30.23,WSW,248,0.0,0.0,89,0.00,CLR,,0.00,0.0,WeatherDisplay:10.37,2013-02-02 08:53:00,
2013-02-02 00:59:00,50.0,46.9,30.23,WSW,248,0.0,0.0,89,0.00,CLR,,0.00,0.0,WeatherDisplay:10.37,2013-02-02 08:59:00,
2013-02-02 01:04:00,50.0,46.9,30.23,WSW,248,0.0,0.0,89,0.00,CLR,,0.00,0.0,WeatherDisplay:10.37,2013-02-02 09:04:00,
2013-02-02 01:09:00,50.2,47.1,30.23,WSW,248,0.0,0.0,89,0.00,CLR,,0.00,0.0,WeatherDisplay:10.37,2013-02-02 09:09:00,
2013-02-02 01:14:00,50.0,46.9,30.23,WSW,248,0.0,0.0,89,0.00,CLR,,0.00,0.0,WeatherDisplay:10.37,2013-02-02 09:14:00,
2013-02-02 01:19:00,50.2,47.1,30.23,WSW,248,0.0,0.0,89,0.00,CLR,,0.00,0.0,WeatherDisplay:10.37,2013-02-02 09:19:00,
2013-02-02 01:24:00,50.0,46.9,30.23,WSW,248,0.0,0.0,89,0.00,CLR,,0.00,0.0,WeatherDisplay:10.37,2013-02-02 09:24:00,
2013-02-02 01:29:00,50.0,46.9,30.23,WSW,248,0.0,0.0,89,0.00,CLR,,0.00,0.0,WeatherDisplay:10.37,2013-02-02 09:29:00,
2013-02-02 01:35:00,50.0,46.6,30.23,WSW,248,0.0,0.0,88,0.00,CLR,,0.00,0.0,WeatherDisplay:10.37,2013-02-02 09:35:00,
2013-02-02 01:40:00,50.0,46.6,30.23,WSW,248,0.0,0.0,88,0.00,CLR,,0.00,0.0,WeatherDisplay:10.37,2013-02-02 09:40:00,
2013-02-02 01:45:00,49.8,46.4,30.23,WSW,248,0.0,0.0,88,0.00,CLR,,0.00,0.0,WeatherDisplay:10.37,2013-02-02 09:45:00,
2013-02-02 01:50:00,49.8,46.4,30.24,WSW,248,0.0,0.0,88,0.00,CLR,,0.00,0.0,WeatherDisplay:10.37,2013-02-02 09:50:00,
2013-02-02 01:55:00,49.8,46.4,30.24,WSW,248,0.0,0.0,88,0.00,CLR,,0.00,0.0,WeatherDisplay:10.37,2013-02-02 09:55:00,
2013-02-02 02:00:00,49.8,46.4,30.24,WSW,248,0.0,0.0,88,0.00,CLR,,0.00,0.0,WeatherDisplay:10.37,2013-02-02 10:00:00,
2013-02-02 02:05:00,49.8,46.4,30.24,WSW,248,0.0,0.0,88,0.00,CLR,,0.00,0.0,WeatherDisplay:10.37,2013-02-02 10:05:00,
2013-02-02 02:10:00,49.6,46.2,30.24,WSW,248,0.0,0.0,88,0.00,CLR,,0.00,0.0,WeatherDisplay:10.37,2013-02-02 10:10:00,
2013-02-02 02:15:00,49.6,46.2,30.24,WSW,248,0.0,0.0,88,0.00,CLR,,0.00,0.0,WeatherDisplay:10.37,2013-02-02 10:15:00,
2013-02-02 02:21:00,49.6,46.2,30.24,WSW,248,0.0,0.0,88,0.00,CLR,,0.00,0.0,WeatherDisplay:10.37,2013-02-02 10:21:00,
2013-02-02 02:26:00,49.8,46.4,30.25,WSW,248,0.0,0.0,88,0.00,CLR,,0.00,0.0,WeatherDisplay:10.37,2013-02-02 10:26:00,
2013-02-02 02:31:00,49.8,46.4,30.25,WSW,248,0.0,0.0,88,0.00,CLR,,0.00,0.0,WeatherDisplay:10.37,2013-02-02 10:31:00,
2013-02-02 02:36:00,49.8,46.4,30.25,WSW,248,0.0,0.0,88,0.00,CLR,,0.00,0.0,WeatherDisplay:10.37,2013-02-02 10:36:00,
2013-02-02 02:41:00,49.8,46.4,30.25,WSW,248,0.0,0.0,88,0.00,CLR,,0.00,0.0,WeatherDisplay:10.37,2013-02-02 10:41:00,
2013-02-02 02:46:00,49.8,46.4,30.24,WSW,248,0.0,0.0,88,0.00,CLR,,0.00,0.0,WeatherDisplay:10.37,2013-02-02 10:46:00,
2013-02-02 02:52:00,49.8,46.4,30.24,WSW,248,0.0,0.0,88,0.00,CLR,,0.00,0.0,WeatherDisplay:10.37,2013-02-02 10:52:00,
2013-02-02 02:57:00,49.5,46.1,30.24,WSW,248,0.0,0.0,88,0.00,CLR,,0.00,0.0,WeatherDisplay:10.37,2013-02-02 10:57:00,
2013-02-02 03:02:00,49.5,46.1,30.24,WSW,248,0.0,0.0,88,0.00,CLR,,0.00,0.0,WeatherDisplay:10.37,2013-02-02 11:02:00,
2013-02-02 03:08:00,49.5,46.1,30.24,WSW,248,0.0,0.0,88,0.00,CLR,,0.00,0.0,WeatherDisplay:10.37,2013-02-02 11:08:00,
2013-02-02 03:13:00,49.3,45.9,30.24,WSW,248,0.0,0.0,88,0.00,CLR,,0.00,0.0,WeatherDisplay:10.37,2013-02-02 11:13:00,
2013-02-02 03:18:00,49.5,46.1,30.24,WSW,248,0.0,0.0,88,0.00,CLR,,0.00,0.0,WeatherDisplay:10.37,2013-02-02 11:18:00,
2013-02-02 03:23:00,49.3,45.9,30.24,WSW,248,0.0,0.0,88,0.00,CLR,,0.00,0.0,WeatherDisplay:10.37,2013-02-02 11:23:00,
2013-02-02 03:29:00,49.5,46.1,30.22,WSW,248,0.0,0.0,88,0.00,CLR,,0.00,0.0,WeatherDisplay:10.37,2013-02-02 11:29:00,
2013-02-02 03:34:00,49.5,46.1,30.22,WSW,248,0.0,0.0,88,0.00,CLR,,0.00,0.0,WeatherDisplay:10.37,2013-02-02 11:34:00,
2013-02-02 03:39:00,49.5,46.1,30.22,WSW,248,0.0,0.0,88,0.00,CLR,,0.00,0.0,WeatherDisplay:10.37,2013-02-02 11:39:00,
2013-02-02 03:45:00,49.3,45.9,30.22,WSW,248,0.0,0.0,88,0.00,CLR,,0.00,0.0,WeatherDisplay:10.37,2013-02-02 11:45:00,
2013-02-02 03:50:00,49.3,45.9,30.22,WSW,248,0.0,0.0,88,0.00,CLR,,0.00,0.0,WeatherDisplay:10.37,2013-02-02 11:50:00,
2013-02-02 03:55:00,49.3,45.9,30.22,WSW,248,0.0,0.0,88,0.00,CLR,,0.00,0.0,WeatherDisplay:10.37,2013-02-02 11:55:00,
2013-02-02 04:00:00,48.9,45.5,30.22,WSW,248,0.0,0.0,88,0.00,CLR,,0.00,0.0,WeatherDisplay:10.37,2013-02-02 12:00:00,
2013-02-02 04:05:00,48.9,45.5,30.22,WSW,248,0.0,0.0,88,0.00,CLR,,0.00,0.0,WeatherDisplay:10.37,2013-02-02 12:05:00,
2013-02-02 04:10:00,48.9,45.5,30.22,WSW,248,0.0,0.0,88,0.00,CLR,,0.00,0.0,WeatherDisplay:10.37,2013-02-02 12:10:00,
2013-02-02 04:15:00,49.1,45.7,30.22,WSW,248,0.0,0.0,88,0.00,CLR,,0.00,0.0,WeatherDisplay:10.37,2013-02-02 12:15:00,
2013-02-02 04:21:00,49.1,45.7,30.22,WSW,248,0.0,0.0,88,0.00,CLR,,0.00,0.0,WeatherDisplay:10.37,2013-02-02 12:21:00,
2013-02-02 04:26:00,49.1,45.7,30.22,WSW,248,0.0,0.0,88,0.00,CLR,,0.00,0.0,WeatherDisplay:10.37,2013-02-02 12:26:00,
2013-02-02 04:31:00,49.1,45.7,30.21,WSW,248,0.0,0.0,88,0.00,CLR,,0.00,0.0,WeatherDisplay:10.37,2013-02-02 12:31:00,
2013-02-02 04:36:00,49.1,45.7,30.21,WSW,248,0.0,0.0,88,0.00,CLR,,0.00,0.0,WeatherDisplay:10.37,2013-02-02 12:36:00,
2013-02-02 04:41:00,49.1,45.7,30.21,WSW,248,0.0,0.0,88,0.00,CLR,,0.00,0.0,WeatherDisplay:10.37,2013-02-02 12:41:00,
2013-02-02 04:46:00,49.1,45.7,30.21,WSW,248,0.0,0.0,88,0.00,CLR,,0.00,0.0,WeatherDisplay:10.37,2013-02-02 12:46:00,
2013-02-02 04:52:00,48.7,45.3,30.21,WSW,248,0.0,0.0,88,0.00,CLR,,0.00,0.0,WeatherDisplay:10.37,2013-02-02 12:52:00,
2013-02-02 04:57:00,48.7,45.3,30.21,WSW,248,0.0,0.0,88,0.00,CLR,,0.00,0.0,WeatherDisplay:10.37,2013-02-02 12:57:00,
2013-02-02 05:02:00,48.7,45.3,30.21,WSW,248,0.0,0.0,88,0.00,CLR,,0.00,0.0,WeatherDisplay:10.37,2013-02-02 13:02:00,
2013-02-02 05:07:00,48.6,45.2,30.21,WSW,248,0.0,0.0,88,0.00,CLR,,0.00,0.0,WeatherDisplay:10.37,2013-02-02 13:07:00,
2013-02-02 05:12:00,48.4,44.7,30.21,WSW,248,0.0,0.0,87,0.00,CLR,,0.00,0.0,WeatherDisplay:10.37,2013-02-02 13:12:00,
2013-02-02 05:18:00,48.4,45.0,30.21,WSW,248,0.0,0.0,88,0.00,CLR,,0.00,0.0,WeatherDisplay:10.37,2013-02-02 13:18:00,
2013-02-02 05:23:00,48.4,45.0,30.21,WSW,248,0.0,0.0,88,0.00,CLR,,0.00,0.0,WeatherDisplay:10.37,2013-02-02 13:23:00,
2013-02-02 05:28:00,48.2,44.8,30.21,WSW,248,0.0,0.0,88,0.00,CLR,,0.00,0.0,WeatherDisplay:10.37,2013-02-02 13:28:00,
2013-02-02 05:33:00,48.2,44.8,30.21,WSW,248,0.0,0.0,88,0.00,CLR,,0.00,0.0,WeatherDisplay:10.37,2013-02-02 13:33:00,
2013-02-02 05:38:00,48.0,44.6,30.21,WSW,248,0.0,0.0,88,0.00,CLR,,0.00,0.0,WeatherDisplay:10.37,2013-02-02 13:38:00,
2013-02-02 05:44:00,48.0,44.6,30.21,WSW,248,0.0,0.0,88,0.00,CLR,,0.00,0.0,WeatherDisplay:10.37,2013-02-02 13:44:00,
2013-02-02 05:49:00,47.8,44.5,30.22,WSW,248,0.0,0.0,88,0.00,CLR,,0.00,0.0,WeatherDisplay:10.37,2013-02-02 13:49:00,
2013-02-02 05:54:00,47.8,44.2,30.22,WSW,248,0.0,0.0,87,0.00,CLR,,0.00,0.0,WeatherDisplay:10.37,2013-02-02 13:54:00,
2013-02-02 05:59:00,47.5,43.8,30.22,WSW,248,0.0,0.0,87,0.00,CLR,,0.00,0.0,WeatherDisplay:10.37,2013-02-02 13:59:00,
2013-02-02 06:04:00,47.7,44.0,30.22,WSW,248,0.0,0.0,87,0.00,CLR,,0.00,0.0,WeatherDisplay:10.37,2013-02-02 14:04:00,
2013-02-02 06:09:00,47.7,44.0,30.22,WSW,248,0.0,0.0,87,0.00,CLR,,0.00,0.0,WeatherDisplay:10.37,2013-02-02 14:09:00,
2013-02-02 06:14:00,47.5,43.8,30.22,WSW,248,0.0,0.0,87,0.00,CLR,,0.00,0.0,WeatherDisplay:10.37,2013-02-02 14:14:00,
2013-02-02 06:19:00,47.3,43.6,30.22,WSW,248,0.0,0.0,87,0.00,CLR,,0.00,0.0,WeatherDisplay:10.37,2013-02-02 14:19:00,
2013-02-02 06:25:00,47.3,43.6,30.22,WSW,248,0.0,0.0,87,0.00,CLR,,0.00,0.0,WeatherDisplay:10.37,2013-02-02 14:25:00,
2013-02-02 06:30:00,47.1,43.4,30.22,WSW,248,0.0,0.0,87,0.00,CLR,,0.00,0.0,WeatherDisplay:10.37,2013-02-02 14:30:00,
2013-02-02 06:35:00,47.1,43.4,30.22,WSW,248,0.0,0.0,87,0.00,CLR,,0.00,0.0,WeatherDisplay:10.37,2013-02-02 14:35:00,
2013-02-02 06:40:00,47.3,43.6,30.22,WSW,248,0.0,0.0,87,0.00,CLR,,0.00,0.0,WeatherDisplay:10.37,2013-02-02 14:40:00,
2013-02-02 06:45:00,47.1,43.4,30.22,WSW,248,0.0,0.0,87,0.00,CLR,,0.00,0.0,WeatherDisplay:10.37,2013-02-02 14:45:00,
2013-02-02 06:50:00,47.1,43.4,30.23,WSW,248,0.0,0.0,87,0.00,CLR,,0.00,0.0,WeatherDisplay:10.37,2013-02-02 14:50:00,
2013-02-02 06:55:00,47.1,43.4,30.23,WSW,248,0.0,0.0,87,0.00,CLR,,0.00,0.0,WeatherDisplay:10.37,2013-02-02 14:55:00,
2013-02-02 07:00:00,47.1,43.4,30.23,WSW,248,0.0,0.0,87,0.00,OVC,,0.00,0.0,WeatherDisplay:10.37,2013-02-02 15:00:00,
2013-02-02 07:06:00,46.9,43.3,30.23,WSW,248,0.0,0.0,87,0.00,OVC,,0.00,0.0,WeatherDisplay:10.37,2013-02-02 15:06:00,
2013-02-02 07:11:00,46.9,43.3,30.23,WSW,248,0.0,0.0,87,0.00,OVC,,0.00,0.0,WeatherDisplay:10.37,2013-02-02 15:11:00,
2013-02-02 07:16:00,47.1,43.4,30.23,WSW,248,0.0,0.0,87,0.00,OVC,,0.00,0.0,WeatherDisplay:10.37,2013-02-02 15:16:00,
2013-02-02 07:21:00,47.1,43.4,30.23,WSW,248,0.0,0.0,87,0.00,OVC,,0.00,0.0,WeatherDisplay:10.37,2013-02-02 15:21:00,
2013-02-02 07:27:00,46.9,43.3,30.24,WSW,248,0.0,0.0,87,0.00,OVC,,0.00,0.0,WeatherDisplay:10.37,2013-02-02 15:27:00,
2013-02-02 07:32:00,47.1,43.4,30.24,WSW,248,0.0,0.0,87,0.00,OVC,,0.00,0.0,WeatherDisplay:10.37,2013-02-02 15:32:00,
2013-02-02 07:37:00,47.1,43.4,30.24,WSW,248,0.0,0.0,87,0.00,OVC,,0.00,0.0,WeatherDisplay:10.37,2013-02-02 15:37:00,
2013-02-02 07:42:00,46.9,43.3,30.24,WSW,248,0.0,0.0,87,0.00,OVC,,0.00,0.0,WeatherDisplay:10.37,2013-02-02 15:42:00,
2013-02-02 07:47:00,47.1,43.4,30.25,WSW,248,0.0,0.0,87,0.00,OVC,,0.00,0.0,WeatherDisplay:10.37,2013-02-02 15:47:00,
2013-02-02 07:52:00,47.3,43.6,30.25,WSW,248,0.0,0.0,87,0.00,OVC,,0.00,0.0,WeatherDisplay:10.37,2013-02-02 15:52:00,
2013-02-02 07:57:00,47.1,43.4,30.25,WSW,248,0.0,0.0,87,0.00,OVC,,0.00,0.0,WeatherDisplay:10.37,2013-02-02 15:57:00,
2013-02-02 08:02:00,47.3,43.6,30.25,WSW,248,0.0,0.0,87,0.00,OVC,,0.00,0.0,WeatherDisplay:10.37,2013-02-02 16:02:00,
2013-02-02 08:08:00,47.7,44.0,30.25,WSW,248,0.0,0.0,87,0.00,OVC,,0.00,0.0,WeatherDisplay:10.37,2013-02-02 16:08:00,
2013-02-02 08:13:00,47.5,43.8,30.25,WSW,248,0.0,0.0,87,0.00,OVC,,0.00,0.0,WeatherDisplay:10.37,2013-02-02 16:13:00,
2013-02-02 08:18:00,47.7,44.0,30.25,WSW,248,0.0,0.0,87,0.00,OVC,,0.00,0.0,WeatherDisplay:10.37,2013-02-02 16:18:00,
2013-02-02 08:23:00,47.8,44.5,30.25,WSW,248,0.0,0.0,88,0.00,OVC,,0.00,0.0,WeatherDisplay:10.37,2013-02-02 16:23:00,
2013-02-02 08:29:00,47.8,44.5,30.26,WSW,248,0.0,0.0,88,0.00,OVC,,0.00,0.0,WeatherDisplay:10.37,2013-02-02 16:29:00,
2013-02-02 08:34:00,48.2,44.8,30.26,WSW,248,0.0,0.0,88,0.00,OVC,,0.00,0.0,WeatherDisplay:10.37,2013-02-02 16:34:00,
2013-02-02 08:39:00,48.0,44.3,30.26,WSW,248,0.0,0.0,87,0.00,OVC,,0.00,0.0,WeatherDisplay:10.37,2013-02-02 16:39:00,
2013-02-02 08:44:00,48.2,44.5,30.26,WSW,248,0.0,0.0,87,0.00,OVC,,0.00,0.0,WeatherDisplay:10.37,2013-02-02 16:44:00,
2013-02-02 08:49:00,48.2,44.5,30.26,WSW,248,0.0,0.0,87,0.00,OVC,,0.00,0.0,WeatherDisplay:10.37,2013-02-02 16:49:00,
2013-02-02 08:54:00,48.6,44.9,30.26,WSW,248,0.0,0.0,87,0.00,OVC,,0.00,0.0,WeatherDisplay:10.37,2013-02-02 16:54:00,
2013-02-02 09:00:00,48.7,45.0,30.26,WSW,248,0.0,0.0,87,0.00,OVC,,0.00,0.0,WeatherDisplay:10.37,2013-02-02 17:00:00,
2013-02-02 09:05:00,49.1,45.7,30.26,WSW,248,0.0,0.0,88,0.00,OVC,,0.00,0.0,WeatherDisplay:10.37,2013-02-02 17:05:00,
2013-02-02 09:10:00,49.3,45.9,30.26,WSW,248,0.0,0.0,88,0.00,OVC,,0.00,0.0,WeatherDisplay:10.37,2013-02-02 17:10:00,
2013-02-02 09:15:00,49.5,45.8,30.26,WSW,248,0.0,0.0,87,0.00,OVC,,0.00,0.0,WeatherDisplay:10.37,2013-02-02 17:15:00,
2013-02-02 09:20:00,49.8,46.1,30.26,WSW,248,0.0,0.0,87,0.00,OVC,,0.00,0.0,WeatherDisplay:10.37,2013-02-02 17:20:00,
2013-02-02 09:25:00,50.0,46.3,30.26,WSW,248,0.0,0.0,87,0.00,OVC,,0.00,0.0,WeatherDisplay:10.37,2013-02-02 17:25:00,
2013-02-02 09:30:00,50.2,46.5,30.27,WSW,248,0.0,0.0,87,0.00,OVC,,0.00,0.0,WeatherDisplay:10.37,2013-02-02 17:30:00,
2013-02-02 09:35:00,50.4,46.6,30.27,WSW,248,0.0,0.0,87,0.00,OVC,,0.00,0.0,WeatherDisplay:10.37,2013-02-02 17:35:00,
2013-02-02 09:40:00,50.7,47.0,30.27,WSW,248,0.0,0.0,87,0.00,OVC,,0.00,0.0,WeatherDisplay:10.37,2013-02-02 17:40:00,
2013-02-02 09:45:00,50.9,47.2,30.27,WSW,248,0.0,0.0,87,0.00,OVC,,0.00,0.0,WeatherDisplay:10.37,2013-02-02 17:45:00,
2013-02-02 09:51:00,51.3,47.2,30.27,WSW,248,0.0,0.0,86,0.00,OVC,,0.00,0.0,WeatherDisplay:10.37,2013-02-02 17:51:00,
2013-02-02 09:56:00,51.4,47.7,30.27,WSW,248,0.0,0.0,87,0.00,OVC,,0.00,0.0,WeatherDisplay:10.37,2013-02-02 17:56:00,
2013-02-02 10:01:00,51.4,47.4,30.27,WSW,248,0.0,0.0,86,0.00,OVC,,0.00,0.0,WeatherDisplay:10.37,2013-02-02 18:01:00,
2013-02-02 10:06:00,51.6,47.6,30.27,WSW,248,0.0,0.0,86,0.00,OVC,,0.00,0.0,WeatherDisplay:10.37,2013-02-02 18:06:00,
2013-02-02 10:11:00,51.6,47.6,30.27,WSW,248,0.0,0.0,86,0.00,OVC,,0.00,0.0,WeatherDisplay:10.37,2013-02-02 18:11:00,
2013-02-02 10:16:00,52.0,48.2,30.27,WSW,248,0.0,0.0,87,0.00,OVC,,0.00,0.0,WeatherDisplay:10.37,2013-02-02 18:16:00,
2013-02-02 10:21:00,52.3,48.6,30.27,WSW,248,0.0,0.0,87,0.00,OVC,,0.00,0.0,WeatherDisplay:10.37,2013-02-02 18:21:00,
2013-02-02 10:26:00,52.5,48.8,30.27,WSW,248,0.0,0.0,87,0.00,OVC,,0.00,0.0,WeatherDisplay:10.37,2013-02-02 18:26:00,
2013-02-02 10:32:00,52.9,49.1,30.27,WSW,248,0.0,0.0,87,0.00,OVC,,0.00,0.0,WeatherDisplay:10.37,2013-02-02 18:32:00,
2013-02-02 10:37:00,53.1,49.0,30.27,WSW,248,0.0,0.0,86,0.00,OVC,,0.00,0.0,WeatherDisplay:10.37,2013-02-02 18:37:00,
2013-02-02 10:42:00,53.1,48.7,30.27,WSW,248,0.0,0.0,85,0.00,OVC,,0.00,0.0,WeatherDisplay:10.37,2013-02-02 18:42:00,
2013-02-02 10:47:00,53.2,48.8,30.27,WSW,248,0.0,0.0,85,0.00,OVC,,0.00,0.0,WeatherDisplay:10.37,2013-02-02 18:47:00,
2013-02-02 10:52:00,53.6,49.2,30.27,WSW,248,0.0,0.0,85,0.00,OVC,,0.00,0.0,WeatherDisplay:10.37,2013-02-02 18:52:00,
2013-02-02 10:57:00,53.8,49.1,30.27,WSW,248,0.0,0.0,84,0.00,OVC,,0.00,0.0,WeatherDisplay:10.37,2013-02-02 18:57:00,
2013-02-02 11:03:00,53.8,49.1,30.27,WSW,248,0.0,0.0,84,0.00,OVC,,0.00,0.0,WeatherDisplay:10.37,2013-02-02 19:03:00,
2013-02-02 11:08:00,54.1,49.4,30.28,WSW,248,0.0,0.0,84,0.00,OVC,,0.00,0.0,WeatherDisplay:10.37,2013-02-02 19:08:00,
2013-02-02 11:13:00,54.1,49.4,30.28,WSW,248,0.0,0.0,84,0.00,OVC,,0.00,0.0,WeatherDisplay:10.37,2013-02-02 19:13:00,
2013-02-02 11:18:00,54.1,49.1,30.28,WSW,248,0.0,0.0,83,0.00,OVC,,0.00,0.0,WeatherDisplay:10.37,2013-02-02 19:18:00,
2013-02-02 11:23:00,54.1,49.1,30.28,WSW,248,0.0,0.0,83,0.00,OVC,,0.00,0.0,WeatherDisplay:10.37,2013-02-02 19:23:00,
2013-02-02 11:28:00,54.3,49.3,30.28,WSW,248,0.0,0.0,83,0.00,OVC,,0.00,0.0,WeatherDisplay:10.37,2013-02-02 19:28:00,
2013-02-02 11:33:00,54.3,49.3,30.28,WSW,248,0.0,0.0,83,0.00,OVC,,0.00,0.0,WeatherDisplay:10.37,2013-02-02 19:33:00,
2013-02-02 11:38:00,54.5,49.4,30.28,WSW,248,0.0,0.0,83,0.00,OVC,,0.00,0.0,WeatherDisplay:10.37,2013-02-02 19:38:00,
2013-02-02 11:43:00,54.3,49.3,30.28,WSW,248,0.0,0.0,83,0.00,OVC,,0.00,0.0,WeatherDisplay:10.37,2013-02-02 19:43:00,
2013-02-02 11:49:00,54.5,49.4,30.26,WSW,248,0.0,0.0,83,0.00,OVC,,0.00,0.0,WeatherDisplay:10.37,2013-02-02 19:49:00,
2013-02-02 11:54:00,54.5,49.4,30.26,WSW,248,0.0,0.0,83,0.00,OVC,,0.00,0.0,WeatherDisplay:10.37,2013-02-02 19:54:00,
2013-02-02 11:59:00,54.7,49.3,30.26,WSW,248,0.0,0.0,82,0.00,OVC,,0.00,0.0,WeatherDisplay:10.37,2013-02-02 19:59:00,
2013-02-02 12:05:00,54.7,49.3,30.26,WSW,248,0.0,0.0,82,0.00,OVC,,0.00,0.0,WeatherDisplay:10.37,2013-02-02 20:05:00,
2013-02-02 12:10:00,54.7,49.3,30.26,WSW,248,0.0,0.0,82,0.00,OVC,,0.00,0.0,WeatherDisplay:10.37,2013-02-02 20:10:00,
2013-02-02 12:15:00,54.9,49.5,30.26,WSW,248,0.0,0.0,82,0.00,OVC,,0.00,0.0,WeatherDisplay:10.37,2013-02-02 20:15:00,
2013-02-02 12:20:00,54.9,49.5,30.26,WSW,248,0.0,0.0,82,0.00,OVC,,0.00,0.0,WeatherDisplay:10.37,2013-02-02 20:20:00,
2013-02-02 12:25:00,55.0,49.3,30.26,WSW,248,0.0,0.0,81,0.00,OVC,,0.00,0.0,WeatherDisplay:10.37,2013-02-02 20:25:00,
2013-02-02 12:30:00,55.0,49.3,30.25,WSW,248,0.0,0.0,81,0.00,OVC,,0.00,0.0,WeatherDisplay:10.37,2013-02-02 20:30:00,
2013-02-02 12:35:00,55.0,49.3,30.25,WSW,248,0.0,0.0,81,0.00,OVC,,0.00,0.0,WeatherDisplay:10.37,2013-02-02 20:35:00,
2013-02-02 12:40:00,55.2,49.5,30.25,WSW,248,0.0,0.0,81,0.00,OVC,,0.00,0.0,WeatherDisplay:10.37,2013-02-02 20:40:00,
2013-02-02 12:45:00,55.2,49.5,30.25,WSW,248,0.0,0.0,81,0.00,OVC,,0.00,0.0,WeatherDisplay:10.37,2013-02-02 20:45:00,
2013-02-02 12:51:00,55.2,49.5,30.23,WSW,248,0.0,0.0,81,0.00,OVC,,0.00,0.0,WeatherDisplay:10.37,2013-02-02 20:51:00,
2013-02-02 12:56:00,55.6,49.8,30.23,WSW,248,0.0,0.0,81,0.00,OVC,,0.00,0.0,WeatherDisplay:10.37,2013-02-02 20:56:00,
2013-02-02 13:01:00,55.6,49.8,30.23,WSW,248,0.0,0.0,81,0.00,OVC,,0.00,0.0,WeatherDisplay:10.37,2013-02-02 21:01:00,
2013-02-02 13:06:00,55.8,49.7,30.23,WSW,248,0.0,0.0,80,0.00,OVC,,0.00,0.0,WeatherDisplay:10.37,2013-02-02 21:06:00,
2013-02-02 13:11:00,55.9,50.2,30.23,WSW,248,0.0,0.0,81,0.00,OVC,,0.00,0.0,WeatherDisplay:10.37,2013-02-02 21:11:00,
2013-02-02 13:17:00,55.9,49.9,30.23,WSW,248,0.0,0.0,80,0.00,OVC,,0.00,0.0,WeatherDisplay:10.37,2013-02-02 21:17:00,
2013-02-02 13:22:00,56.3,50.2,30.23,WSW,248,0.0,0.0,80,0.00,OVC,,0.00,0.0,WeatherDisplay:10.37,2013-02-02 21:22:00,
2013-02-02 13:27:00,56.5,50.4,30.23,WSW,248,0.0,0.0,80,0.00,OVC,,0.00,0.0,WeatherDisplay:10.37,2013-02-02 21:27:00,
2013-02-02 13:32:00,56.7,50.6,30.23,WSW,248,0.0,0.0,80,0.00,OVC,,0.00,0.0,WeatherDisplay:10.37,2013-02-02 21:32:00,
2013-02-02 13:37:00,57.0,50.6,30.23,WSW,248,0.0,0.0,79,0.00,OVC,,0.00,0.0,WeatherDisplay:10.37,2013-02-02 21:37:00,
2013-02-02 13:42:00,57.0,50.6,30.23,WSW,248,0.0,0.0,79,0.00,OVC,,0.00,0.0,WeatherDisplay:10.37,2013-02-02 21:42:00,
2013-02-02 13:48:00,56.7,49.9,30.23,WSW,248,0.0,0.0,78,0.00,OVC,,0.00,0.0,WeatherDisplay:10.37,2013-02-02 21:48:00,
2013-02-02 13:53:00,56.7,50.2,30.23,WSW,248,0.0,0.0,79,0.00,OVC,,0.00,0.0,WeatherDisplay:10.37,2013-02-02 21:53:00,
2013-02-02 13:58:00,56.7,50.2,30.23,WSW,248,0.0,0.0,79,0.00,OVC,,0.00,0.0,WeatherDisplay:10.37,2013-02-02 21:58:00,
2013-02-02 14:03:00,56.7,50.2,30.23,WSW,248,0.0,0.0,79,0.00,OVC,,0.00,0.0,WeatherDisplay:10.37,2013-02-02 22:03:00,
2013-02-02 14:08:00,57.0,50.6,30.23,WSW,248,0.0,0.0,79,0.00,OVC,,0.00,0.0,WeatherDisplay:10.37,2013-02-02 22:08:00,
2013-02-02 14:13:00,57.2,50.4,30.23,WSW,248,0.0,0.0,78,0.00,OVC,,0.00,0.0,WeatherDisplay:10.37,2013-02-02 22:13:00,
2013-02-02 14:18:00,57.2,50.4,30.23,WSW,248,0.0,0.0,78,0.00,OVC,,0.00,0.0,WeatherDisplay:10.37,2013-02-02 22:18:00,
2013-02-02 14:24:00,57.4,50.6,30.23,WSW,248,0.0,0.0,78,0.00,OVC,,0.00,0.0,WeatherDisplay:10.37,2013-02-02 22:24:00,
2013-02-02 14:29:00,57.2,50.1,30.22,WSW,248,0.0,0.0,77,0.00,OVC,,0.00,0.0,WeatherDisplay:10.37,2013-02-02 22:29:00,
2013-02-02 14:34:00,57.0,49.9,30.22,WSW,248,0.0,0.0,77,0.00,OVC,,0.00,0.0,WeatherDisplay:10.37,2013-02-02 22:34:00,
2013-02-02 14:39:00,56.7,49.9,30.22,WSW,248,0.0,0.0,78,0.00,OVC,,0.00,0.0,WeatherDisplay:10.37,2013-02-02 22:39:00,
2013-02-02 14:44:00,56.8,50.1,30.22,WSW,248,0.0,0.0,78,0.00,OVC,,0.00,0.0,WeatherDisplay:10.37,2013-02-02 22:44:00,
2013-02-02 14:49:00,56.7,49.9,30.22,WSW,248,0.0,0.0,78,0.00,OVC,,0.00,0.0,WeatherDisplay:10.37,2013-02-02 22:49:00,
2013-02-02 14:54:00,56.7,49.9,30.22,WSW,248,0.0,0.0,78,0.00,OVC,,0.00,0.0,WeatherDisplay:10.37,2013-02-02 22:54:00,
2013-02-02 14:59:00,57.0,50.2,30.22,WSW,248,0.0,0.0,78,0.00,OVC,,0.00,0.0,WeatherDisplay:10.37,2013-02-02 22:59:00,
2013-02-02 15:05:00,57.2,50.1,30.22,WSW,248,0.0,0.0,77,0.00,OVC,,0.00,0.0,WeatherDisplay:10.37,2013-02-02 23:05:00,
2013-02-02 15:10:00,57.9,50.8,30.21,WSW,248,0.0,0.0,77,0.00,OVC,,0.00,0.0,WeatherDisplay:10.37,2013-02-02 23:10:00,
2013-02-02 15:15:00,58.5,51.3,30.21,WSW,248,0.0,0.0,77,0.00,OVC,,0.00,0.0,WeatherDisplay:10.37,2013-02-02 23:15:00,
2013-02-02 15:20:00,58.6,51.1,30.21,WSW,248,0.0,0.0,76,0.00,OVC,,0.00,0.0,WeatherDisplay:10.37,2013-02-02 23:20:00,
2013-02-02 15:25:00,58.8,51.3,30.21,WSW,248,0.0,0.0,76,0.00,OVC,,0.00,0.0,WeatherDisplay:10.37,2013-02-02 23:25:00,
2013-02-02 15:30:00,58.6,50.7,30.20,WSW,248,0.0,0.0,75,0.00,OVC,,0.00,0.0,WeatherDisplay:10.37,2013-02-02 23:30:00,
2013-02-02 15:35:00,58.8,50.9,30.20,WSW,248,0.0,0.0,75,0.00,OVC,,0.00,0.0,WeatherDisplay:10.37,2013-02-02 23:35:00,
2013-02-02 15:40:00,58.3,50.7,30.20,WSW,248,0.0,0.0,76,0.00,OVC,,0.00,0.0,WeatherDisplay:10.37,2013-02-02 23:40:00,
2013-02-02 15:46:00,58.1,50.9,30.20,WSW,248,0.0,0.0,77,0.00,OVC,,0.00,0.0,WeatherDisplay:10.37,2013-02-02 23:46:00,
2013-02-02 15:51:00,58.5,51.6,30.20,WSW,248,0.0,0.0,78,0.00,OVC,,0.00,0.0,WeatherDisplay:10.37,2013-02-02 23:51:00,
2013-02-02 15:56:00,58.6,51.8,30.20,WSW,248,0.0,0.0,78,0.00,OVC,,0.00,0.0,WeatherDisplay:10.37,2013-02-02 23:56:00,
2013-02-02 16:01:00,58.8,51.6,30.20,WSW,248,0.0,0.0,77,0.00,OVC,,0.00,0.0,WeatherDisplay:10.37,2013-02-03 00:01:00,
2013-02-02 16:06:00,58.8,51.6,30.20,WSW,248,0.0,0.0,77,0.00,OVC,,0.00,0.0,WeatherDisplay:10.37,2013-02-03 00:06:00,
2013-02-02 16:11:00,59.2,52.0,30.20,WSW,248,0.0,0.0,77,0.00,OVC,,0.00,0.0,WeatherDisplay:10.37,2013-02-03 00:11:00,
2013-02-02 16:16:00,58.8,51.6,30.20,WSW,248,0.0,0.0,77,0.00,OVC,,0.00,0.0,WeatherDisplay:10.37,2013-02-03 00:16:00,
2013-02-02 16:21:00,59.2,52.0,30.20,WSW,248,0.0,0.0,77,0.00,OVC,,0.00,0.0,WeatherDisplay:10.37,2013-02-03 00:21:00,
2013-02-02 16:26:00,59.0,52.1,30.21,WSW,248,0.0,0.0,78,0.00,OVC,,0.00,0.0,WeatherDisplay:10.37,2013-02-03 00:26:00,
2013-02-02 16:32:00,58.8,51.6,30.21,WSW,248,0.0,0.0,77,0.00,OVC,,0.00,0.0,WeatherDisplay:10.37,2013-02-03 00:32:00,
2013-02-02 16:37:00,58.6,51.4,30.21,WSW,248,0.0,0.0,77,0.00,OVC,,0.00,0.0,WeatherDisplay:10.37,2013-02-03 00:37:00,
2013-02-02 16:42:00,58.6,51.4,30.21,WSW,248,0.0,0.0,77,0.00,OVC,,0.00,0.0,WeatherDisplay:10.37,2013-02-03 00:42:00,
2013-02-02 16:47:00,58.5,50.9,30.21,WSW,248,0.0,0.0,76,0.00,OVC,,0.00,0.0,WeatherDisplay:10.37,2013-02-03 00:47:00,
2013-02-02 16:52:00,58.1,50.2,30.21,WSW,248,0.0,0.0,75,0.00,OVC,,0.00,0.0,WeatherDisplay:10.37,2013-02-03 00:52:00,
2013-02-02 16:57:00,57.9,50.0,30.21,WSW,248,0.0,0.0,75,0.00,OVC,,0.00,0.0,WeatherDisplay:10.37,2013-02-03 00:57:00,
2013-02-02 17:02:00,57.6,50.4,30.21,WSW,248,0.0,0.0,77,0.00,OVC,,0.00,0.0,WeatherDisplay:10.37,2013-02-03 01:02:00,
2013-02-02 17:07:00,57.4,50.2,30.21,WSW,248,0.0,0.0,77,0.00,OVC,,0.00,0.0,WeatherDisplay:10.37,2013-02-03 01:07:00,
2013-02-02 17:12:00,57.0,50.2,30.21,WSW,248,0.0,0.0,78,0.00,OVC,,0.00,0.0,WeatherDisplay:10.37,2013-02-03 01:12:00,
2013-02-02 17:17:00,56.8,50.1,30.21,WSW,248,0.0,0.0,78,0.00,OVC,,0.00,0.0,WeatherDisplay:10.37,2013-02-03 01:17:00,
2013-02-02 17:22:00,57.0,50.6,30.21,WSW,248,0.0,0.0,79,0.00,OVC,,0.00,0.0,WeatherDisplay:10.37,2013-02-03 01:22:00,
2013-02-02 17:27:00,56.5,49.7,30.21,WSW,248,0.0,0.0,78,0.00,OVC,,0.00,0.0,WeatherDisplay:10.37,2013-02-03 01:27:00,
2013-02-02 17:33:00,56.5,50.0,30.21,WSW,248,0.0,0.0,79,0.00,OVC,,0.00,0.0,WeatherDisplay:10.37,2013-02-03 01:33:00,
2013-02-02 17:38:00,56.3,49.9,30.21,WSW,248,0.0,0.0,79,0.00,OVC,,0.00,0.0,WeatherDisplay:10.37,2013-02-03 01:38:00,
2013-02-02 17:43:00,56.3,49.9,30.21,WSW,248,0.0,0.0,79,0.00,OVC,,0.00,0.0,WeatherDisplay:10.37,2013-02-03 01:43:00,
2013-02-02 17:48:00,55.9,49.5,30.21,WSW,248,0.0,0.0,79,0.00,OVC,,0.00,0.0,WeatherDisplay:10.37,2013-02-03 01:48:00,
2013-02-02 17:53:00,55.8,49.3,30.21,WSW,248,0.0,0.0,79,0.00,OVC,,0.00,0.0,WeatherDisplay:10.37,2013-02-03 01:53:00,
2013-02-02 17:58:00,55.6,49.2,30.21,WSW,248,0.0,0.0,79,0.00,OVC,,0.00,0.0,WeatherDisplay:10.37,2013-02-03 01:58:00,
2013-02-02 18:03:00,55.4,49.3,30.21,WSW,248,0.0,0.0,80,0.00,CLR,,0.00,0.0,WeatherDisplay:10.37,2013-02-03 02:03:00,
2013-02-02 18:08:00,55.4,49.3,30.21,WSW,248,0.0,0.0,80,0.00,CLR,,0.00,0.0,WeatherDisplay:10.37,2013-02-03 02:08:00,
2013-02-02 18:13:00,55.2,49.2,30.21,WSW,248,0.0,0.0,80,0.00,CLR,,0.00,0.0,WeatherDisplay:10.37,2013-02-03 02:13:00,
2013-02-02 18:18:00,55.2,49.2,30.21,WSW,248,0.0,0.0,80,0.00,CLR,,0.00,0.0,WeatherDisplay:10.37,2013-02-03 02:18:00,
2013-02-02 18:23:00,54.9,49.1,30.21,WSW,248,0.0,0.0,81,0.00,CLR,,0.00,0.0,WeatherDisplay:10.37,2013-02-03 02:23:00,
2013-02-02 18:29:00,54.7,49.0,30.21,WSW,248,0.0,0.0,81,0.00,CLR,,0.00,0.0,WeatherDisplay:10.37,2013-02-03 02:29:00,
2013-02-02 18:34:00,54.5,48.8,30.21,WSW,248,0.0,0.0,81,0.00,CLR,,0.00,0.0,WeatherDisplay:10.37,2013-02-03 02:34:00,
2013-02-02 18:39:00,54.5,48.8,30.21,WSW,248,0.0,0.0,81,0.00,CLR,,0.00,0.0,WeatherDisplay:10.37,2013-02-03 02:39:00,
2013-02-02 18:44:00,54.5,48.8,30.21,WSW,248,0.0,0.0,81,0.00,CLR,,0.00,0.0,WeatherDisplay:10.37,2013-02-03 02:44:00,
2013-02-02 18:49:00,54.1,48.4,30.21,WSW,248,0.0,0.0,81,0.00,CLR,,0.00,0.0,WeatherDisplay:10.37,2013-02-03 02:49:00,
2013-02-02 18:54:00,54.1,48.8,30.21,WSW,248,0.0,0.0,82,0.00,CLR,,0.00,0.0,WeatherDisplay:10.37,2013-02-03 02:54:00,
2013-02-02 18:59:00,54.0,48.6,30.21,WSW,248,0.0,0.0,82,0.00,CLR,,0.00,0.0,WeatherDisplay:10.37,2013-02-03 02:59:00,
2013-02-02 19:04:00,53.6,48.2,30.21,WSW,248,0.0,0.0,82,0.00,CLR,,0.00,0.0,WeatherDisplay:10.37,2013-02-03 03:04:00,
2013-02-02 19:09:00,53.6,48.2,30.21,WSW,248,0.0,0.0,82,0.00,CLR,,0.00,0.0,WeatherDisplay:10.37,2013-02-03 03:09:00,
2013-02-02 19:15:00,53.6,48.2,30.21,WSW,248,0.0,0.0,82,0.00,CLR,,0.00,0.0,WeatherDisplay:10.37,2013-02-03 03:15:00,
2013-02-02 19:20:00,53.4,48.4,30.21,WSW,248,0.0,0.0,83,0.00,CLR,,0.00,0.0,WeatherDisplay:10.37,2013-02-03 03:20:00,
2013-02-02 19:25:00,53.2,48.2,30.21,WSW,248,0.0,0.0,83,0.00,CLR,,0.00,0.0,WeatherDisplay:10.37,2013-02-03 03:25:00,
2013-02-02 19:30:00,53.4,48.4,30.20,WSW,248,0.0,0.0,83,0.00,CLR,,0.00,0.0,WeatherDisplay:10.37,2013-02-03 03:30:00,
2013-02-02 19:35:00,53.1,48.0,30.20,WSW,248,0.0,0.0,83,0.00,CLR,,0.00,0.0,WeatherDisplay:10.37,2013-02-03 03:35:00,
2013-02-02 19:40:00,53.1,48.0,30.20,WSW,248,0.0,0.0,83,0.00,CLR,,0.00,0.0,WeatherDisplay:10.37,2013-02-03 03:40:00,
2013-02-02 19:45:00,53.1,48.4,30.20,WSW,248,0.0,0.0,84,0.00,CLR,,0.00,0.0,WeatherDisplay:10.37,2013-02-03 03:45:00,
2013-02-02 19:51:00,52.9,48.2,30.21,WSW,248,0.0,0.0,84,0.00,CLR,,0.00,0.0,WeatherDisplay:10.37,2013-02-03 03:51:00,
2013-02-02 19:56:00,52.7,48.0,30.21,WSW,248,0.0,0.0,84,0.00,CLR,,0.00,0.0,WeatherDisplay:10.37,2013-02-03 03:56:00,
2013-02-02 20:01:00,52.7,48.0,30.21,WSW,248,0.0,0.0,84,0.00,CLR,,0.00,0.0,WeatherDisplay:10.37,2013-02-03 04:01:00,
2013-02-02 20:06:00,52.5,47.8,30.21,WSW,248,0.0,0.0,84,0.00,CLR,,0.00,0.0,WeatherDisplay:10.37,2013-02-03 04:06:00,
2013-02-02 20:11:00,52.3,47.6,30.21,WSW,248,0.0,0.0,84,0.00,CLR,,0.00,0.0,WeatherDisplay:10.37,2013-02-03 04:11:00,
2013-02-02 20:16:00,52.2,47.5,30.21,WSW,248,0.0,0.0,84,0.00,CLR,,0.00,0.0,WeatherDisplay:10.37,2013-02-03 04:16:00,
2013-02-02 20:21:00,52.3,47.6,30.21,WSW,248,0.0,0.0,84,0.00,CLR,,0.00,0.0,WeatherDisplay:10.37,2013-02-03 04:21:00,
2013-02-02 20:26:00,52.2,47.5,30.21,WSW,248,0.0,0.0,84,0.00,CLR,,0.00,0.0,WeatherDisplay:10.37,2013-02-03 04:26:00,
2013-02-02 20:31:00,52.0,47.3,30.21,WSW,248,0.0,0.0,84,0.00,CLR,,0.00,0.0,WeatherDisplay:10.37,2013-02-03 04:31:00,
2013-02-02 20:37:00,52.0,47.3,30.21,WSW,248,0.0,0.0,84,0.00,CLR,,0.00,0.0,WeatherDisplay:10.37,2013-02-03 04:37:00,
2013-02-02 20:42:00,51.6,46.9,30.21,WSW,248,0.0,0.0,84,0.00,CLR,,0.00,0.0,WeatherDisplay:10.37,2013-02-03 04:42:00,
2013-02-02 20:47:00,51.4,46.8,30.22,WSW,248,0.0,0.0,84,0.00,CLR,,0.00,0.0,WeatherDisplay:10.37,2013-02-03 04:47:00,
2013-02-02 20:52:00,51.4,46.8,30.22,WSW,248,0.0,0.0,84,0.00,CLR,,0.00,0.0,WeatherDisplay:10.37,2013-02-03 04:52:00,
2013-02-02 20:57:00,51.4,46.8,30.22,WSW,248,0.0,0.0,84,0.00,CLR,,0.00,0.0,WeatherDisplay:10.37,2013-02-03 04:57:00,
2013-02-02 21:00:00,51.3,46.6,30.22,WSW,248,0.0,0.0,84,0.00,CLR,,0.00,0.0,WeatherDisplay:10.37,2013-02-03 05:00:00,
2013-02-02 21:01:00,51.3,46.6,30.22,WSW,248,0.0,0.0,84,0.00,CLR,,0.00,0.0,WeatherDisplay:10.37,2013-02-03 05:01:00,
2013-02-02 21:06:00,51.1,46.7,30.22,WSW,248,0.0,0.0,85,0.00,CLR,,0.00,0.0,WeatherDisplay:10.37,2013-02-03 05:06:00,
2013-02-02 21:12:00,51.3,46.9,30.22,WSW,248,0.0,0.0,85,0.00,CLR,,0.00,0.0,WeatherDisplay:10.37,2013-02-03 05:12:00,
2013-02-02 21:17:00,50.9,46.6,30.22,WSW,248,0.0,0.0,85,0.00,CLR,,0.00,0.0,WeatherDisplay:10.37,2013-02-03 05:17:00,
2013-02-02 21:23:00,50.7,46.4,30.22,WSW,248,0.0,0.0,85,0.00,CLR,,0.00,0.0,WeatherDisplay:10.37,2013-02-03 05:23:00,
2013-02-02 21:28:00,50.5,46.2,30.22,WSW,248,0.0,0.0,85,0.00,CLR,,0.00,0.0,WeatherDisplay:10.37,2013-02-03 05:28:00,
2013-02-02 21:33:00,50.4,46.0,30.22,WSW,248,0.0,0.0,85,0.00,CLR,,0.00,0.0,WeatherDisplay:10.37,2013-02-03 05:33:00,
2013-02-02 21:38:00,50.5,46.5,30.22,WSW,248,0.0,0.0,86,0.00,CLR,,0.00,0.0,WeatherDisplay:10.37,2013-02-03 05:38:00,
2013-02-02 21:43:00,50.4,46.0,30.22,WSW,248,0.0,0.0,85,0.00,CLR,,0.00,0.0,WeatherDisplay:10.37,2013-02-03 05:43:00,
2013-02-02 21:48:00,50.2,45.8,30.22,WSW,248,0.0,0.0,85,0.00,CLR,,0.00,0.0,WeatherDisplay:10.37,2013-02-03 05:48:00,
2013-02-02 21:53:00,50.0,45.7,30.22,WSW,248,0.0,0.0,85,0.00,CLR,,0.00,0.0,WeatherDisplay:10.37,2013-02-03 05:53:00,
2013-02-02 21:58:00,50.0,45.7,30.22,WSW,248,0.0,0.0,85,0.00,CLR,,0.00,0.0,WeatherDisplay:10.37,2013-02-03 05:58:00,
2013-02-02 22:04:00,49.8,45.5,30.22,WSW,248,0.0,0.0,85,0.00,CLR,,0.00,0.0,WeatherDisplay:10.37,2013-02-03 06:04:00,
2013-02-02 22:09:00,49.6,45.3,30.22,WSW,248,0.0,0.0,85,0.00,CLR,,0.00,0.0,WeatherDisplay:10.37,2013-02-03 06:09:00,
2013-02-02 22:14:00,49.5,45.4,30.22,WSW,248,0.0,0.0,86,0.00,CLR,,0.00,0.0,WeatherDisplay:10.37,2013-02-03 06:14:00,
2013-02-02 22:19:00,49.5,45.4,30.22,WSW,248,0.0,0.0,86,0.00,CLR,,0.00,0.0,WeatherDisplay:10.37,2013-02-03 06:19:00,
2013-02-02 22:24:00,49.3,45.3,30.22,WSW,248,0.0,0.0,86,0.00,CLR,,0.00,0.0,WeatherDisplay:10.37,2013-02-03 06:24:00,
2013-02-02 22:29:00,49.3,45.3,30.22,WSW,248,0.0,0.0,86,0.00,CLR,,0.00,0.0,WeatherDisplay:10.37,2013-02-03 06:29:00,
2013-02-02 22:34:00,49.1,45.1,30.22,WSW,248,0.0,0.0,86,0.00,CLR,,0.00,0.0,WeatherDisplay:10.37,2013-02-03 06:34:00,
2013-02-02 22:39:00,49.1,45.1,30.22,WSW,248,0.0,0.0,86,0.00,CLR,,0.00,0.0,WeatherDisplay:10.37,2013-02-03 06:39:00,
2013-02-02 22:45:00,49.1,45.1,30.22,WSW,248,0.0,0.0,86,0.00,CLR,,0.00,0.0,WeatherDisplay:10.37,2013-02-03 06:45:00,
2013-02-02 22:50:00,49.1,45.1,30.23,WSW,248,0.0,0.0,86,0.00,CLR,,0.00,0.0,WeatherDisplay:10.37,2013-02-03 06:50:00,
2013-02-02 22:55:00,48.9,44.9,30.23,WSW,248,0.0,0.0,86,0.00,CLR,,0.00,0.0,WeatherDisplay:10.37,2013-02-03 06:55:00,
2013-02-02 23:00:00,48.9,44.9,30.23,WSW,248,0.0,0.0,86,0.00,CLR,,0.00,0.0,WeatherDisplay:10.37,2013-02-03 07:00:00,
2013-02-02 23:06:00,48.7,44.7,30.23,WSW,248,0.0,0.0,86,0.00,CLR,,0.00,0.0,WeatherDisplay:10.37,2013-02-03 07:06:00,
2013-02-02 23:11:00,48.6,44.6,30.23,WSW,248,0.0,0.0,86,0.00,CLR,,0.00,0.0,WeatherDisplay:10.37,2013-02-03 07:11:00,
2013-02-02 23:16:00,48.6,44.9,30.23,WSW,248,0.0,0.0,87,0.00,CLR,,0.00,0.0,WeatherDisplay:10.37,2013-02-03 07:16:00,
2013-02-02 23:21:00,48.7,45.0,30.23,WSW,248,0.0,0.0,87,0.00,CLR,,0.00,0.0,WeatherDisplay:10.37,2013-02-03 07:21:00,
2013-02-02 23:26:00,48.6,44.9,30.22,WSW,248,0.0,0.0,87,0.00,CLR,,0.00,0.0,WeatherDisplay:10.37,2013-02-03 07:26:00,
2013-02-02 23:31:00,48.6,44.9,30.22,WSW,248,0.0,0.0,87,0.00,CLR,,0.00,0.0,WeatherDisplay:10.37,2013-02-03 07:31:00,
2013-02-02 23:36:00,48.6,44.9,30.22,WSW,248,0.0,0.0,87,0.00,CLR,,0.00,0.0,WeatherDisplay:10.37,2013-02-03 07:36:00,
2013-02-02 23:42:00,49.1,45.7,30.22,WSW,248,0.0,0.0,88,0.00,CLR,,0.00,0.0,WeatherDisplay:10.37,2013-02-03 07:42:00,
2013-02-02 23:47:00,49.1,45.7,30.23,WSW,248,0.0,0.0,88,0.00,CLR,,0.00,0.0,WeatherDisplay:10.37,2013-02-03 07:47:00,
2013-02-02 23:52:00,49.1,45.7,30.23,WSW,248,0.0,0.0,88,0.00,CLR,,0.00,0.0,WeatherDisplay:10.37,2013-02-03 07:52:00,
2013-02-02 23:57:00,49.1,45.7,30.23,WSW,248,0.0,0.0,88,0.00,CLR,,0.00,0.0,WeatherDisplay:10.37,2013-02-03 07:57:00,